Location: ?????
(55.8833°N, 37.6500°E)
Time: 10:24:22
(UTC+00:00)

NOSS 2-3 (C) - Pass Details

Date: 27 February 2020
Orbit: 585 x 1627 km, 63.4° (Epoch: 26 March)

Event Time Altitude Azimuth Distance (km) Brightness Sun altitude
Rises 16:04:29 0° 217° (SW) 2,864 7.5 -10.0°
Reaches altitude 10° 16:06:35 10° 213° (SSW) 2,020 6.7 -10.3°
Maximum altitude 16:11:01 62° 133° (SE) 804 3.9 -11.0°
Drops below altitude 10° 16:16:30 10° 54° (NE) 2,483 6.2 -11.7°
Enters shadow 16:17:04 - 53° (NE) 2,709 6.4 -11.8°
